User: anonymous   Login
Location: Caltech
(34.1382°N, 118.1253°W)
Time: 18:18:10
(UTC-07:00)
Language:

Cosmos 1484 Rocket - Orbit

View from above orbital plane
View from above orbital plane
View from above satellite
View from above satellite

Ground track
Ground track

The orbit data is extracted from the following two-line orbital elements,

1 14208U 83075B   17144.58316997 +.00000492 +00000-0 +33312-4 0  9994
2 14208 097.3411 156.1205 0038522 210.4336 149.4658 15.10369679843640
Epoch (UTC): 24 May 2017 13:59:45
Eccentricity: 0.0038522
inclination: 97.3411°
perigee height: 508 km
apogee height: 562 km
right ascension of ascending node: 156.1205°
argument of perigee: 210.4336°
revolutions per day: 15.10369679
mean anomaly at epoch: 149.4658°
orbit number at epoch: 84364

The dashed part of the orbit path shows where the satellite is in the earth's shadow,  

DLR